sat.trackr.live / text

‹ back to catalog

STARLINK-4577

NORAD 53564 · 2022-101AP

PAYLOAD ACTIVE UNKNOWN

§ Identity

Operator
Country
US
Launch date
2022-08-19
Launch site
AFETR
Launch vehicle
Mass (kg)
RCS (m²)

Purposes: comms

External: N2YO · Heavens-Above · Gunter

§ Orbital elements

Epoch: 2026-05-25T04:37:54.653952Z

Period
95.44 min
Inclination
53.2142°
Eccentricity
0.0001341
Mean motion
15.08841619 rev/d
Perigee alt
538.8 km
Apogee alt
540.7 km
Semi-major
6,917.9 km
B*
1.6518e-5
RAAN
70.7502°
Arg perigee
72.5792°
Mean anomaly
287.5347°
Rev number
20,799

§ Raw data

STARLINK-45771 53564U 22101AP  26145.19299368 -.00000025  00000+0  16518-4 0  99962 53564  53.2142  70.7502 0001341  72.5792 287.5347 15.08841619207990

JSON: /api/v1/satellites/53564 · /tle

For live sub-satellite position, see the globe view (requires WebGL).

§ Visibility from observer

Set your observer location to see the next 7 days of passes ≥ 10°. The values pass through the URL so the page stays shareable.

No JS? Fill the form by hand. The geolocation button needs JavaScript.